• In Hungary
  • List of Countries
  • For 7 days
  • Water Temperature
  • Satellite Maps
  • Weather Map
  • News
  • Weather Widgets
  • user-avatar
    Login

    Hourly Weather Biella

    Today, 26 September, Wednesday

    Time Temperature Precipitation Wind Pressure Humidity
    00:00 +12°C° 0 mm 1 mps 736 mmHg 72%
    01:00 +12°C° 0 mm 1 mps 736 mmHg 72%
    02:00 +12°C° 0 mm 1 mps 736 mmHg 72%
    03:00 +12°C° 0 mm 1 mps 736 mmHg 71%
    04:00 +10°C° 0 mm 2 mps 737 mmHg 71%
    05:00 +11°C° 0 mm 1 mps 737 mmHg 70%
    06:00 +11°C° 0 mm 1 mps 737 mmHg 70%
    07:00 +11°C° 0 mm 1 mps 737 mmHg 69%
    08:00 +13°C° 0 mm 2 mps 737 mmHg 63%
    09:00 +15°C° 0 mm 2 mps 737 mmHg 58%
    10:00 +16°C° 0 mm 2 mps 737 mmHg 52%
    11:00 +17°C° 0 mm 2 mps 737 mmHg 50%
    12:00 +18°C° 0 mm 2 mps 737 mmHg 48%
    13:00 +19°C° 0 mm 2 mps 736 mmHg 46%
    14:00 +19°C° 0 mm 2 mps 736 mmHg 48%
    15:00 +19°C° 0 mm 2 mps 736 mmHg 49%
    16:00 +19°C° 0 mm 2 mps 736 mmHg 50%
    17:00 +19°C° 0 mm 1 mps 736 mmHg 57%
    18:00 +16°C° 0 mm 1 mps 735 mmHg 64%
    19:00 +14°C° 0 mm 1 mps 735 mmHg 71%
    20:00 +14°C° 0 mm 1 mps 736 mmHg 72%
    21:00 +13°C° 0 mm 1 mps 736 mmHg 72%
    22:00 +13°C° 0 mm 1 mps 736 mmHg 72%
    23:00 +13°C° 0 mm 1 mps 736 mmHg 72%

    Tomorrow, 27 September, Thursday

    Time Temperature Precipitation Wind Pressure Humidity
    00:00 +13°C° 0 mm 1 mps 735 mmHg 72%
    01:00 +13°C° 0 mm 1 mps 735 mmHg 72%
    02:00 +12°C° 0 mm 1 mps 735 mmHg 71%
    03:00 +12°C° 0 mm 1 mps 735 mmHg 70%
    04:00 +12°C° 0 mm 1 mps 734 mmHg 70%
    05:00 +12°C° 0 mm 1 mps 734 mmHg 68%
    06:00 +13°C° 0 mm 1 mps 734 mmHg 66%
    07:00 +13°C° 0 mm 1 mps 734 mmHg 64%
    08:00 +15°C° 0 mm 1 mps 734 mmHg 58%
    09:00 +19°C° 0 mm 1 mps 734 mmHg 51%
    10:00 +21°C° 0 mm 1 mps 734 mmHg 44%
    11:00 +22°C° 0 mm 1 mps 734 mmHg 43%
    12:00 +23°C° 0 mm 1 mps 733 mmHg 42%
    13:00 +25°C° 0 mm 2 mps 733 mmHg 41%
    14:00 +24°C° 0 mm 1 mps 733 mmHg 42%
    15:00 +24°C° 0 mm 1 mps 732 mmHg 44%
    16:00 +24°C° 0 mm 1 mps 731 mmHg 45%
    17:00 +22°C° 0 mm 1 mps 731 mmHg 53%
    18:00 +20°C° 0 mm 1 mps 731 mmHg 60%
    19:00 +18°C° 0 mm 1 mps 731 mmHg 68%
    20:00 +16°C° 0 mm 1 mps 731 mmHg 67%
    21:00 +16°C° 0 mm 1 mps 731 mmHg 67%
    22:00 +16°C° 0 mm 1 mps 731 mmHg 67%
    23:00 +15°C° 0 mm 1 mps 730 mmHg 66%

    Day after tomorrow, 28 September, Friday

    Time Temperature Precipitation Wind Pressure Humidity
    00:00 +15°C° 0 mm 1 mps 730 mmHg 65%
    01:00 +15°C° 0 mm 1 mps 729 mmHg 65%
    02:00 +15°C° 0 mm 1 mps 729 mmHg 63%
    03:00 +14°C° 0 mm 1 mps 728 mmHg 61%
    04:00 +14°C° 0 mm 1 mps 728 mmHg 59%
    05:00 +14°C° 0 mm 1 mps 727 mmHg 57%
    06:00 +14°C° 0 mm 1 mps 727 mmHg 55%
    07:00 +14°C° 0 mm 1 mps 727 mmHg 53%
    08:00 +18°C° 0 mm 1 mps 727 mmHg 49%
    09:00 +20°C° 0 mm 1 mps 727 mmHg 44%
    10:00 +23°C° 0 mm 1 mps 727 mmHg 39%
    11:00 +24°C° 0 mm 1 mps 726 mmHg 38%
    12:00 +25°C° 0 mm 1 mps 726 mmHg 37%
    13:00 +26°C° 0 mm 2 mps 726 mmHg 36%
    14:00 +26°C° 0 mm 1 mps 725 mmHg 37%
    15:00 +26°C° 0 mm 1 mps 725 mmHg 39%
    16:00 +26°C° 0 mm 1 mps 724 mmHg 41%
    17:00 +23°C° 0 mm 1 mps 724 mmHg 48%
    18:00 +21°C° 0 mm 1 mps 724 mmHg 55%
    19:00 +19°C° 0 mm 1 mps 724 mmHg 63%
    20:00 +19°C° 0 mm 1 mps 724 mmHg 63%
    21:00 +18°C° 0 mm 1 mps 724 mmHg 64%
    22:00 +18°C° 0 mm 1 mps 725 mmHg 65%
    23:00 +18°C° 0 mm 1 mps 724 mmHg 65%

    29 September, Saturday

    Time Temperature Precipitation Wind Pressure Humidity
    00:00 +16°C° 0 mm 1 mps 724 mmHg 66%
    01:00 +16°C° 0 mm 1 mps 724 mmHg 66%
    02:00 +16°C° 0 mm 1 mps 724 mmHg 66%
    03:00 +15°C° 0 mm 1 mps 724 mmHg 66%
    04:00 +15°C° 0 mm 1 mps 724 mmHg 66%
    05:00 +15°C° 0 mm 1 mps 724 mmHg 66%
    06:00 +15°C° 0 mm 1 mps 724 mmHg 66%
    07:00 +15°C° 0 mm 1 mps 724 mmHg 66%
    08:00 +18°C° 0 mm 1 mps 724 mmHg 59%
    09:00 +20°C° 0 mm 1 mps 724 mmHg 53%
    10:00 +22°C° 0 mm 1 mps 725 mmHg 46%
    11:00 +23°C° 0 mm 1 mps 724 mmHg 45%
    12:00 +24°C° 0 mm 2 mps 724 mmHg 43%
    13:00 +25°C° 0 mm 2 mps 724 mmHg 41%
    14:00 +25°C° 0 mm 2 mps 724 mmHg 43%
    15:00 +24°C° 0 mm 2 mps 724 mmHg 45%
    16:00 +24°C° 0 mm 2 mps 724 mmHg 47%
    17:00 +21°C° 0 mm 2 mps 724 mmHg 52%
    18:00 +21°C° 0 mm 1 mps 725 mmHg 58%
    19:00 +19°C° 0 mm 1 mps 725 mmHg 63%
    20:00 +18°C° 0 mm 2 mps 725 mmHg 65%
    21:00 +18°C° 0 mm 2 mps 726 mmHg 66%
    22:00 +17°C° 0 mm 3 mps 726 mmHg 67%
    23:00 +17°C° 0.1 mm 3 mps 726 mmHg 71%

    30 September, Sunday

    Time Temperature Precipitation Wind Pressure Humidity
    00:00 +16°C° 0.1 mm 3 mps 726 mmHg 76%
    01:00 +16°C° 0.1 mm 3 mps 726 mmHg 80%
    02:00 +16°C° 0 mm 2 mps 726 mmHg 79%
    03:00 +15°C° 0 mm 2 mps 726 mmHg 79%
    04:00 +15°C° 0 mm 2 mps 726 mmHg 79%
    05:00 +15°C° 0 mm 2 mps 726 mmHg 80%
    06:00 +14°C° 0 mm 2 mps 726 mmHg 80%
    07:00 +14°C° 0 mm 1 mps 726 mmHg 81%
    08:00 +15°C° 0 mm 2 mps 726 mmHg 76%
    09:00 +16°C° 0 mm 2 mps 726 mmHg 72%
    10:00 +17°C° 0 mm 2 mps 726 mmHg 67%
    11:00 +17°C° 0 mm 2 mps 726 mmHg 64%
    12:00 +18°C° 0 mm 2 mps 725 mmHg 62%
    13:00 +19°C° 0 mm 2 mps 725 mmHg 59%
    14:00 +19°C° 0 mm 2 mps 725 mmHg 59%
    15:00 +19°C° 0 mm 2 mps 724 mmHg 59%
    16:00 +19°C° 0 mm 2 mps 724 mmHg 59%
    17:00 +18°C° 0 mm 2 mps 724 mmHg 64%
    18:00 +16°C° 0 mm 1 mps 724 mmHg 68%
    19:00 +15°C° 0 mm 1 mps 724 mmHg 73%
    20:00 +15°C° 0 mm 1 mps 724 mmHg 74%
    21:00 +14°C° 0 mm 1 mps 724 mmHg 75%
    22:00 +14°C° 0 mm 1 mps 724 mmHg 75%
    23:00 +14°C° 0 mm 1 mps 724 mmHg 76%

    1 October, Monday

    Time Temperature Precipitation Wind Pressure Humidity
    00:00 +13°C° 0 mm 1 mps 723 mmHg 77%
    01:00 +13°C° 0 mm 1 mps 723 mmHg 78%
    02:00 +13°C° 0 mm 1 mps 723 mmHg 78%
    03:00 +13°C° 0 mm 1 mps 722 mmHg 79%
    04:00 +13°C° 0 mm 1 mps 722 mmHg 79%
    05:00 +12°C° 0 mm 1 mps 722 mmHg 79%
    06:00 +12°C° 0 mm 1 mps 722 mmHg 79%
    07:00 +12°C° 0 mm 1 mps 722 mmHg 80%
    08:00 +14°C° 0 mm 1 mps 721 mmHg 72%
    09:00 +16°C° 0 mm 1 mps 721 mmHg 64%
    10:00 +18°C° 0 mm 1 mps 721 mmHg 56%
    11:00 +19°C° 0 mm 1 mps 721 mmHg 53%
    12:00 +19°C° 0 mm 2 mps 720 mmHg 50%
    13:00 +20°C° 0 mm 2 mps 720 mmHg 47%
    14:00 +20°C° 0 mm 2 mps 719 mmHg 48%
    15:00 +20°C° 0 mm 2 mps 719 mmHg 50%
    16:00 +20°C° 0 mm 2 mps 718 mmHg 51%
    17:00 +18°C° 0.1 mm 2 mps 718 mmHg 57%
    18:00 +17°C° 0.1 mm 2 mps 718 mmHg 63%
    19:00 +15°C° 0.1 mm 1 mps 718 mmHg 70%
    20:00 +15°C° 0.5 mm 2 mps 718 mmHg 70%
    21:00 +14°C° 0.5 mm 2 mps 717 mmHg 71%
    22:00 +14°C° 0.5 mm 2 mps 717 mmHg 71%
    23:00 +13°C° 0.5 mm 2 mps 717 mmHg 71%
    Show more